Weather in Ovsyanka

Russia / Amur Oblast     53°34′34″N   126°53′56″E
temp.,
°C
wind,
m/s
gust,
m/s
humid.,
%
clouds,
%
prec.,
mm/h
press.,
hPa
HPBL,
m
11 april, sun
sun1100:00−6wnw412761 0.0 1018445
03:00−8wnw411755 0.0 1020366
06:00−9wnw410762 0.0 1023377
09:00−6nw59520 0.0 1025937
12:00−3nw58465 0.0 10261664
15:00−2nw5844100 0.0 10252347
18:00−4nnw58585 0.1 10271088
21:00−10nnw268273 0.1 103096
12 april, mon
mon1200:00−13nw119192 0.0 103015
03:00−13wnw138995 0.0 102970
06:00−15nw159068 0.0 102888
09:00−7nnw365327 0.0 1026710
12:00−4nnw5744100 0.0 10231673
15:00−3nnw5644100 0.0 10212161
18:00−5nnw4760100 0.0 10201074
21:00−10nw26855 0.1 1021103
13 april, tue
tue1300:00−11nw28875 0.0 1019135
03:00−12nw38845 0.0 1017149
06:00−13nw24895 0.0 101773
09:00−6nnw46564 0.0 1015533
12:00−3n5644100 0.0 10141993
15:00−2n5748100 0.1 10122088
18:00−3n3660100 0.2 10121000
21:00−8nw24915 0.3 101256
14 april, wed
wed1400:00−10wnw25935 0.0 101281
03:00−12wnw11955 0.0 101121
06:00−12wnw11955 0.0 101228
09:00−5nw22620 0.0 1011334
12:00−1nw11433 0.0 10101334
15:000w223940 0.0 10101514
18:000ssw124866 0.0 1009104
21:00−5ssw117941 0.0 101110
15 april, thu
thu1500:00−7ssw0187100 0.0 101110
03:00−8e119414 0.0 101111
06:00−9ene119513 0.0 101114
09:00−2e12576 0.0 1011324
12:00+2e2341100 0.0 10091463
15:00+2e4542100 0.0 10081533
18:00+1ene4955100 0.0 1008462
21:00−1ene51266100 0.0 1007500